Time,TemperatureF,DewpointF,PressureIn,WindDirection,WindDirectionDegrees,WindSpeedMPH,WindSpeedGustMPH,Humidity,HourlyPrecipIn,Conditions,Clouds,dailyrainin,SolarRadiationWatts/m^2,SoftwareType,DateUTC
2013-02-02 00:05:00,35.8,30.0,30.31,NE,43,0.0,0.0,78,0.00,,,0.00,0,weatherlink.com 1.10,2013-02-02 06:05:00,
2013-02-02 00:21:00,35.5,29.0,30.31,NE,44,0.0,0.0,78,0.00,,,0.00,0,weatherlink.com 1.10,2013-02-02 06:21:00,
2013-02-02 00:35:00,35.1,29.0,30.31,NE,43,0.0,0.0,79,0.00,,,0.00,0,weatherlink.com 1.10,2013-02-02 06:35:00,
2013-02-02 00:50:00,34.4,29.0,30.31,NE,43,0.0,0.0,79,0.00,,,0.00,0,weatherlink.com 1.10,2013-02-02 06:50:00,
2013-02-02 01:05:00,34.0,28.0,30.30,NE,44,0.0,0.0,80,0.00,,,0.00,0,weatherlink.com 1.10,2013-02-02 07:05:00,
2013-02-02 01:20:00,33.6,28.0,30.30,NE,43,0.0,0.0,80,0.00,,,0.00,0,weatherlink.com 1.10,2013-02-02 07:20:00,
2013-02-02 01:35:00,33.4,28.0,30.30,NE,43,0.0,0.0,81,0.00,,,0.00,0,weatherlink.com 1.10,2013-02-02 07:35:00,
2013-02-02 01:51:00,33.2,28.0,30.30,NE,44,0.0,0.0,82,0.00,,,0.00,0,weatherlink.com 1.10,2013-02-02 07:51:00,
2013-02-02 02:06:00,33.0,28.0,30.29,NE,44,0.0,0.0,82,0.00,,,0.00,0,weatherlink.com 1.10,2013-02-02 08:06:00,
2013-02-02 02:21:00,32.8,28.0,30.29,NE,43,0.0,0.0,82,0.00,,,0.00,0,weatherlink.com 1.10,2013-02-02 08:21:00,
2013-02-02 02:36:00,32.8,28.0,30.28,NE,43,0.0,0.0,82,0.00,,,0.00,0,weatherlink.com 1.10,2013-02-02 08:36:00,
2013-02-02 02:51:00,32.9,28.0,30.28,NE,44,0.0,1.0,83,0.00,,,0.00,0,weatherlink.com 1.10,2013-02-02 08:51:00,
2013-02-02 03:06:00,32.7,28.0,30.28,NE,44,0.0,1.0,83,0.00,,,0.00,0,weatherlink.com 1.10,2013-02-02 09:06:00,
2013-02-02 03:21:00,33.0,28.0,30.27,SE,140,0.0,4.0,83,0.00,,,0.00,0,weatherlink.com 1.10,2013-02-02 09:21:00,
2013-02-02 03:36:00,33.2,29.0,30.27,SE,140,0.0,1.0,83,0.00,,,0.00,0,weatherlink.com 1.10,2013-02-02 09:36:00,
2013-02-02 03:51:00,33.6,29.0,30.27,ENE,65,0.0,1.0,83,0.00,,,0.00,0,weatherlink.com 1.10,2013-02-02 09:51:00,
2013-02-02 04:06:00,34.3,30.0,30.26,ENE,65,0.0,2.0,83,0.00,,,0.00,0,weatherlink.com 1.10,2013-02-02 10:06:00,
2013-02-02 04:21:00,35.4,31.0,30.25,SE,131,1.0,5.0,83,0.00,,,0.00,0,weatherlink.com 1.10,2013-02-02 10:21:00,
2013-02-02 04:36:00,36.3,32.0,30.26,SE,132,0.0,1.0,83,0.00,,,0.00,0,weatherlink.com 1.10,2013-02-02 10:36:00,
2013-02-02 04:51:00,36.7,32.0,30.25,SSE,150,0.0,2.0,82,0.00,,,0.00,0,weatherlink.com 1.10,2013-02-02 10:51:00,
2013-02-02 05:06:00,37.2,32.0,30.25,SE,138,0.0,2.0,81,0.00,,,0.00,0,weatherlink.com 1.10,2013-02-02 11:06:00,
2013-02-02 05:21:00,38.5,33.0,30.25,SSE,165,0.0,5.0,81,0.00,,,0.00,0,weatherlink.com 1.10,2013-02-02 11:21:00,
2013-02-02 05:36:00,40.5,34.0,30.25,SSE,166,3.0,3.0,78,0.00,,,0.00,0,weatherlink.com 1.10,2013-02-02 11:36:00,
2013-02-02 05:51:00,41.3,34.0,30.24,South,184,0.0,4.0,76,0.00,,,0.00,0,weatherlink.com 1.10,2013-02-02 11:51:00,
2013-02-02 06:21:00,42.7,35.0,30.25,South,181,0.0,9.0,75,0.00,,,0.00,0,weatherlink.com 1.10,2013-02-02 12:21:00,
2013-02-02 06:36:00,42.7,35.0,30.25,SSE,163,0.0,4.0,75,0.00,,,0.00,0,weatherlink.com 1.10,2013-02-02 12:36:00,
2013-02-02 06:51:00,42.7,36.0,30.26,South,185,1.0,6.0,76,0.00,,,0.00,0,weatherlink.com 1.10,2013-02-02 12:51:00,
2013-02-02 07:06:00,42.8,36.0,30.25,SSE,158,0.0,6.0,77,0.00,,,0.00,5,weatherlink.com 1.10,2013-02-02 13:06:00,
2013-02-02 07:21:00,42.6,36.0,30.25,SE,143,0.0,4.0,77,0.00,,,0.00,14,weatherlink.com 1.10,2013-02-02 13:21:00,
2013-02-02 07:36:00,42.7,36.0,30.26,South,170,1.0,5.0,78,0.00,,,0.00,21,weatherlink.com 1.10,2013-02-02 13:36:00,
2013-02-02 07:51:00,43.9,38.0,30.26,South,189,1.0,4.0,79,0.00,,,0.00,28,weatherlink.com 1.10,2013-02-02 13:51:00,
2013-02-02 08:06:00,46.1,40.0,30.26,SW,229,0.0,7.0,78,0.00,,,0.00,47,weatherlink.com 1.10,2013-02-02 14:06:00,
2013-02-02 08:21:00,48.3,41.0,30.27,SSW,213,6.0,7.0,75,0.00,,,0.00,169,weatherlink.com 1.10,2013-02-02 14:21:00,
2013-02-02 08:36:00,50.4,42.0,30.27,SSW,204,1.0,7.0,72,0.00,,,0.00,199,weatherlink.com 1.10,2013-02-02 14:36:00,
2013-02-02 08:52:00,52.1,43.0,30.27,SSW,193,2.0,10.0,70,0.00,,,0.00,313,weatherlink.com 1.10,2013-02-02 14:52:00,
2013-02-02 09:06:00,54.3,44.0,30.27,SSW,209,9.0,13.0,68,0.00,,,0.00,376,weatherlink.com 1.10,2013-02-02 15:06:00,
2013-02-02 09:22:00,55.5,44.0,30.27,South,186,5.0,12.0,65,0.00,,,0.00,420,weatherlink.com 1.10,2013-02-02 15:22:00,
2013-02-02 09:37:00,57.6,44.0,30.27,SSW,194,7.0,12.0,60,0.00,,,0.00,464,weatherlink.com 1.10,2013-02-02 15:37:00,
2013-02-02 09:52:00,58.9,44.0,30.27,SSW,213,1.0,9.0,59,0.00,,,0.00,503,weatherlink.com 1.10,2013-02-02 15:52:00,
2013-02-02 10:07:00,59.8,45.0,30.27,South,188,4.0,8.0,58,0.00,,,0.00,538,weatherlink.com 1.10,2013-02-02 16:07:00,
2013-02-02 10:22:00,61.4,46.0,30.27,SW,229,1.0,8.0,57,0.00,,,0.00,573,weatherlink.com 1.10,2013-02-02 16:22:00,
2013-02-02 10:37:00,61.6,46.0,30.27,WSW,241,9.0,11.0,58,0.00,,,0.00,603,weatherlink.com 1.10,2013-02-02 16:37:00,
2013-02-02 10:52:00,62.8,48.0,30.26,SW,218,6.0,11.0,58,0.00,,,0.00,629,weatherlink.com 1.10,2013-02-02 16:52:00,
2013-02-02 11:07:00,64.0,48.0,30.26,SSW,193,8.0,10.0,56,0.00,,,0.00,649,weatherlink.com 1.10,2013-02-02 17:07:00,
2013-02-02 11:22:00,65.9,49.0,30.25,SW,231,3.0,8.0,55,0.00,,,0.00,670,weatherlink.com 1.10,2013-02-02 17:22:00,
2013-02-02 11:37:00,66.8,49.0,30.25,SW,224,1.0,10.0,54,0.00,,,0.00,682,weatherlink.com 1.10,2013-02-02 17:37:00,
2013-02-02 11:52:00,66.9,50.0,30.24,SW,231,1.0,9.0,54,0.00,,,0.00,693,weatherlink.com 1.10,2013-02-02 17:52:00,
2013-02-02 12:07:00,67.6,50.0,30.23,SW,215,5.0,10.0,53,0.00,,,0.00,694,weatherlink.com 1.10,2013-02-02 18:07:00,
2013-02-02 12:22:00,69.5,50.0,30.22,WSW,240,6.0,10.0,50,0.00,,,0.00,700,weatherlink.com 1.10,2013-02-02 18:22:00,
2013-02-02 12:37:00,70.1,51.0,30.21,SW,233,6.0,9.0,51,0.00,,,0.00,694,weatherlink.com 1.10,2013-02-02 18:37:00,
2013-02-02 12:52:00,70.7,50.0,30.21,West,277,5.0,8.0,49,0.00,,,0.00,691,weatherlink.com 1.10,2013-02-02 18:52:00,
2013-02-02 13:08:00,71.3,50.0,30.20,West,263,5.0,11.0,47,0.00,,,0.00,680,weatherlink.com 1.10,2013-02-02 19:08:00,
2013-02-02 13:23:00,71.3,50.0,30.19,WSW,247,5.0,11.0,48,0.00,,,0.00,666,weatherlink.com 1.10,2013-02-02 19:23:00,
2013-02-02 13:37:00,71.5,51.0,30.18,North,4,5.0,12.0,48,0.00,,,0.00,647,weatherlink.com 1.10,2013-02-02 19:37:00,
2013-02-02 13:53:00,72.8,49.0,30.18,West,265,6.0,11.0,43,0.00,,,0.00,624,weatherlink.com 1.10,2013-02-02 19:53:00,
2013-02-02 14:08:00,72.2,50.0,30.18,North,4,6.0,10.0,45,0.00,,,0.00,594,weatherlink.com 1.10,2013-02-02 20:08:00,
2013-02-02 14:23:00,72.1,50.0,30.17,SW,223,2.0,11.0,46,0.00,,,0.00,547,weatherlink.com 1.10,2013-02-02 20:23:00,
2013-02-02 14:38:00,72.3,50.0,30.16,WSW,258,2.0,10.0,45,0.00,,,0.00,548,weatherlink.com 1.10,2013-02-02 20:38:00,
2013-02-02 14:53:00,72.2,49.0,30.16,West,279,2.0,7.0,44,0.00,,,0.00,334,weatherlink.com 1.10,2013-02-02 20:53:00,
2013-02-02 15:08:00,71.7,50.0,30.16,SSW,198,6.0,7.0,46,0.00,,,0.00,512,weatherlink.com 1.10,2013-02-02 21:08:00,
2013-02-02 15:23:00,71.1,50.0,30.16,NW,321,3.0,10.0,47,0.00,,,0.00,408,weatherlink.com 1.10,2013-02-02 21:23:00,
2013-02-02 15:38:00,69.6,50.0,30.16,NW,313,1.0,5.0,50,0.00,,,0.00,301,weatherlink.com 1.10,2013-02-02 21:38:00,
2013-02-02 15:53:00,69.1,50.0,30.15,WNW,294,2.0,4.0,51,0.00,,,0.00,70,weatherlink.com 1.10,2013-02-02 21:53:00,
2013-02-02 16:08:00,68.3,50.0,30.16,WSW,257,0.0,5.0,53,0.00,,,0.00,251,weatherlink.com 1.10,2013-02-02 22:08:00,
2013-02-02 16:23:00,68.8,50.0,30.16,West,266,0.0,5.0,52,0.00,,,0.00,62,weatherlink.com 1.10,2013-02-02 22:23:00,
2013-02-02 16:38:00,68.3,51.0,30.16,WSW,246,0.0,5.0,55,0.00,,,0.00,62,weatherlink.com 1.10,2013-02-02 22:38:00,
2013-02-02 16:53:00,68.4,52.0,30.16,WSW,245,2.0,2.0,57,0.00,,,0.00,30,weatherlink.com 1.10,2013-02-02 22:53:00,
2013-02-02 17:08:00,67.3,52.0,30.16,WSW,242,0.0,0.0,58,0.00,,,0.00,23,weatherlink.com 1.10,2013-02-02 23:08:00,
2013-02-02 17:23:00,65.9,52.0,30.16,WSW,240,0.0,0.0,61,0.00,,,0.00,19,weatherlink.com 1.10,2013-02-02 23:23:00,
2013-02-02 17:38:00,64.1,52.0,30.16,North,4,0.0,0.0,64,0.00,,,0.00,7,weatherlink.com 1.10,2013-02-02 23:38:00,
2013-02-02 17:53:00,62.3,51.0,30.17,WSW,241,0.0,0.0,67,0.00,,,0.00,0,weatherlink.com 1.10,2013-02-02 23:53:00,
2013-02-02 18:08:00,60.6,50.0,30.17,WSW,241,0.0,0.0,69,0.00,,,0.00,0,weatherlink.com 1.10,2013-02-03 00:08:00,
2013-02-02 18:23:00,58.9,49.0,30.17,North,4,0.0,0.0,71,0.00,,,0.00,0,weatherlink.com 1.10,2013-02-03 00:23:00,
2013-02-02 18:38:00,57.6,49.0,30.18,WSW,240,0.0,0.0,72,0.00,,,0.00,0,weatherlink.com 1.10,2013-02-03 00:38:00,
2013-02-02 18:53:00,56.7,49.0,30.19,North,4,0.0,0.0,74,0.00,,,0.00,0,weatherlink.com 1.10,2013-02-03 00:53:00,
2013-02-02 19:08:00,55.3,48.0,30.19,WSW,240,0.0,0.0,75,0.00,,,0.00,0,weatherlink.com 1.10,2013-02-03 01:08:00,
2013-02-02 19:23:00,54.6,48.0,30.19,WSW,240,0.0,0.0,77,0.00,,,0.00,0,weatherlink.com 1.10,2013-02-03 01:23:00,
2013-02-02 19:38:00,53.8,47.0,30.19,WSW,240,0.0,0.0,77,0.00,,,0.00,0,weatherlink.com 1.10,2013-02-03 01:38:00,
2013-02-02 19:53:00,53.2,47.0,30.20,North,4,0.0,0.0,78,0.00,,,0.00,0,weatherlink.com 1.10,2013-02-03 01:53:00,
2013-02-02 20:08:00,52.7,46.0,30.20,WSW,241,0.0,0.0,79,0.00,,,0.00,0,weatherlink.com 1.10,2013-02-03 02:08:00,
2013-02-02 20:23:00,52.1,46.0,30.21,WSW,240,0.0,0.0,79,0.00,,,0.00,0,weatherlink.com 1.10,2013-02-03 02:23:00,
2013-02-02 20:38:00,52.1,46.0,30.21,WSW,240,0.0,0.0,80,0.00,,,0.00,0,weatherlink.com 1.10,2013-02-03 02:38:00,
2013-02-02 20:53:00,52.2,47.0,30.22,North,4,1.0,2.0,81,0.00,,,0.00,0,weatherlink.com 1.10,2013-02-03 02:53:00,
2013-02-02 21:08:00,51.1,45.0,30.22,NNE,19,1.0,4.0,81,0.00,,,0.00,0,weatherlink.com 1.10,2013-02-03 03:08:00,
2013-02-02 21:23:00,51.3,46.0,30.23,NNE,18,0.0,2.0,81,0.00,,,0.00,0,weatherlink.com 1.10,2013-02-03 03:23:00,
2013-02-02 21:38:00,51.9,47.0,30.23,NNE,19,1.0,2.0,82,0.00,,,0.00,0,weatherlink.com 1.10,2013-02-03 03:38:00,
2013-02-02 21:53:00,52.4,47.0,30.23,NNE,19,0.0,4.0,82,0.00,,,0.00,0,weatherlink.com 1.10,2013-02-03 03:53:00,
2013-02-02 22:08:00,52.8,47.0,30.24,NNE,19,0.0,0.0,81,0.00,,,0.00,0,weatherlink.com 1.10,2013-02-03 04:08:00,
2013-02-02 22:23:00,53.3,48.0,30.24,NNE,19,0.0,0.0,81,0.00,,,0.00,0,weatherlink.com 1.10,2013-02-03 04:23:00,
2013-02-02 22:38:00,53.5,48.0,30.25,NNE,19,0.0,0.0,81,0.00,,,0.00,0,weatherlink.com 1.10,2013-02-03 04:38:00,
2013-02-02 22:53:00,53.1,47.0,30.25,NNE,19,0.0,0.0,80,0.00,,,0.00,0,weatherlink.com 1.10,2013-02-03 04:53:00,
2013-02-02 23:08:00,52.2,46.0,30.25,NNE,18,0.0,0.0,80,0.00,,,0.00,0,weatherlink.com 1.10,2013-02-03 05:08:00,
2013-02-02 23:23:00,51.3,45.0,30.25,NNE,19,0.0,0.0,80,0.00,,,0.00,0,weatherlink.com 1.10,2013-02-03 05:23:00,
2013-02-02 23:38:00,50.6,45.0,30.25,NNE,18,0.0,0.0,81,0.00,,,0.00,0,weatherlink.com 1.10,2013-02-03 05:38:00,
2013-02-02 23:53:00,49.7,44.0,30.26,NNE,19,0.0,0.0,81,0.00,,,0.00,0,weatherlink.com 1.10,2013-02-03 05:53:00,